Year,Month,Day,Hour,Minute,Value (Times are PST for temperature in C)
2015,07,28,01,16,13.90
2015,07,28,01,17,13.90
2015,07,28,01,18,13.90
2015,07,28,01,19,13.90
2015,07,28,01,20,13.90
2015,07,28,01,21,13.90
2015,07,28,01,22,13.90
2015,07,28,01,23,13.90
2015,07,28,01,24,13.90
2015,07,28,01,25,13.90
2015,07,28,01,26,13.90
2015,07,28,01,27,13.90
2015,07,28,01,28,13.90
2015,07,28,01,29,13.90
2015,07,28,01,30,13.90
2015,07,28,01,33,13.90
2015,07,28,01,34,13.90
2015,07,28,01,35,13.90
2015,07,28,01,36,13.90
2015,07,28,01,37,13.90
2015,07,28,01,38,13.90
2015,07,28,01,39,13.90
2015,07,28,01,40,13.90
2015,07,28,01,41,13.90
2015,07,28,01,42,13.90
2015,07,28,01,43,13.90
2015,07,28,01,44,13.90
2015,07,28,01,45,13.90
2015,07,28,01,46,13.60
2015,07,28,01,47,13.60
2015,07,28,01,48,13.60
2015,07,28,01,49,13.60
2015,07,28,01,50,13.60
2015,07,28,01,51,13.60
2015,07,28,01,52,13.60
2015,07,28,01,53,13.60
2015,07,28,01,54,13.60
2015,07,28,01,55,13.60
2015,07,28,01,56,13.60
2015,07,28,01,57,13.60
2015,07,28,01,58,13.60
2015,07,28,01,59,13.60
2015,07,28,02,00,13.60
2015,07,28,02,01,13.60
2015,07,28,02,02,13.60
2015,07,28,02,03,13.60
2015,07,28,02,04,13.60
2015,07,28,02,05,13.60
2015,07,28,02,06,13.60
2015,07,28,02,07,13.60
2015,07,28,02,08,13.60
2015,07,28,02,09,13.60
2015,07,28,02,10,13.60
2015,07,28,02,11,13.60
2015,07,28,02,12,13.60
2015,07,28,02,13,13.60
2015,07,28,02,14,13.60
2015,07,28,02,15,13.60
2015,07,28,02,16,13.30
2015,07,28,02,17,13.30
2015,07,28,02,18,13.30
2015,07,28,02,19,13.30
2015,07,28,02,20,13.30
2015,07,28,02,21,13.30
2015,07,28,02,22,13.30
2015,07,28,02,23,13.30
2015,07,28,02,24,13.30
2015,07,28,02,25,13.30
2015,07,28,02,26,13.30
2015,07,28,02,27,13.30
2015,07,28,02,28,13.30
2015,07,28,02,29,13.30
2015,07,28,02,30,13.30
2015,07,28,02,31,13.30
2015,07,28,02,32,13.30
2015,07,28,02,33,13.30
2015,07,28,02,34,13.30
2015,07,28,02,35,13.30
2015,07,28,02,36,13.30
2015,07,28,02,37,13.30
2015,07,28,02,38,13.30
2015,07,28,02,39,13.30
2015,07,28,02,40,13.30
2015,07,28,02,41,13.30
2015,07,28,02,42,13.30
2015,07,28,02,43,13.30
2015,07,28,02,44,13.30
2015,07,28,02,45,13.30
2015,07,28,02,46,13.50
2015,07,28,02,47,13.50
2015,07,28,02,48,13.50
2015,07,28,02,49,13.50
2015,07,28,02,50,13.50
2015,07,28,02,51,13.50
2015,07,28,02,52,13.50
2015,07,28,02,53,13.50
2015,07,28,02,54,13.50
2015,07,28,02,55,13.50
2015,07,28,02,56,13.50
2015,07,28,02,57,13.50
2015,07,28,02,58,13.50
2015,07,28,02,59,13.50
2015,07,28,03,00,13.50
2015,07,28,03,01,13.50
2015,07,28,03,02,13.50
2015,07,28,03,03,13.50
2015,07,28,03,05,13.50
2015,07,28,03,06,13.50
2015,07,28,03,07,13.50
2015,07,28,03,08,13.50
2015,07,28,03,09,13.50
2015,07,28,03,10,13.50
2015,07,28,03,11,13.50
2015,07,28,03,12,13.50
2015,07,28,03,13,13.50
2015,07,28,03,14,13.50
2015,07,28,03,15,13.50
2015,07,28,03,16,13.30
2015,07,28,03,17,13.30
2015,07,28,03,18,13.30
2015,07,28,03,19,13.30
2015,07,28,03,20,13.30
2015,07,28,03,21,13.30
2015,07,28,03,22,13.30
2015,07,28,03,23,13.30
2015,07,28,03,24,13.30
2015,07,28,03,25,13.30
2015,07,28,03,26,13.30
2015,07,28,03,27,13.30
2015,07,28,03,28,13.30
2015,07,28,03,29,13.30
2015,07,28,03,30,13.30
2015,07,28,03,31,13.30
2015,07,28,03,32,13.30
2015,07,28,03,33,13.30
2015,07,28,03,34,13.30
2015,07,28,03,35,13.30
2015,07,28,03,36,13.30
2015,07,28,03,37,13.30
2015,07,28,03,38,13.30
2015,07,28,03,39,13.30
2015,07,28,03,40,13.30
2015,07,28,03,41,13.30
2015,07,28,03,42,13.30
2015,07,28,03,43,13.30
2015,07,28,03,44,13.30
2015,07,28,03,45,13.30
2015,07,28,03,46,13.20
2015,07,28,03,47,13.20
2015,07,28,03,48,13.20
2015,07,28,03,49,13.20
2015,07,28,03,50,13.20
2015,07,28,03,51,13.20
2015,07,28,03,52,13.20
2015,07,28,03,53,13.20
2015,07,28,03,54,13.20
2015,07,28,03,55,13.20
2015,07,28,03,56,13.20
2015,07,28,03,57,13.20
2015,07,28,03,58,13.20
2015,07,28,03,59,13.20
2015,07,28,04,00,13.20
2015,07,28,04,01,13.20
2015,07,28,04,02,13.20
2015,07,28,04,03,13.20
2015,07,28,04,04,13.20
2015,07,28,04,05,13.20
2015,07,28,04,06,13.20
2015,07,28,04,07,13.20
2015,07,28,04,08,13.20
2015,07,28,04,09,13.20
2015,07,28,04,10,13.20
2015,07,28,04,11,13.20
2015,07,28,04,12,13.20
2015,07,28,04,13,13.20
2015,07,28,04,14,13.20
2015,07,28,04,15,13.20
2015,07,28,04,16,13.90
2015,07,28,04,17,13.90
2015,07,28,04,18,13.90
2015,07,28,04,19,13.90
2015,07,28,04,20,13.90
2015,07,28,04,21,13.90
2015,07,28,04,22,13.90
2015,07,28,04,23,13.90
2015,07,28,04,24,13.90
2015,07,28,04,25,13.90
2015,07,28,04,26,13.90
2015,07,28,04,27,13.90
2015,07,28,04,28,13.90
2015,07,28,04,29,13.90
2015,07,28,04,30,13.90
2015,07,28,04,31,13.90
2015,07,28,04,32,13.90
2015,07,28,04,33,13.90
2015,07,28,04,34,13.90
2015,07,28,04,35,13.90
2015,07,28,04,36,13.90
2015,07,28,04,37,13.90
2015,07,28,04,38,13.90
2015,07,28,04,39,13.90
2015,07,28,04,40,13.90
2015,07,28,04,41,13.90
2015,07,28,04,42,13.90
2015,07,28,04,43,13.90
2015,07,28,04,44,13.90
2015,07,28,04,45,13.90
2015,07,28,04,46,13.30
2015,07,28,04,47,13.30
2015,07,28,04,48,13.30
2015,07,28,04,49,13.30
2015,07,28,04,50,13.30
2015,07,28,04,51,13.30
2015,07,28,04,52,13.30
2015,07,28,04,53,13.30
2015,07,28,04,54,13.30
2015,07,28,04,55,13.30
2015,07,28,04,56,13.30
2015,07,28,04,57,13.30
2015,07,28,04,58,13.30
2015,07,28,04,59,13.30
2015,07,28,05,00,13.30
2015,07,28,05,01,13.30
2015,07,28,05,02,13.30
2015,07,28,05,03,13.30
2015,07,28,05,04,13.30
2015,07,28,05,05,13.30
2015,07,28,05,06,13.30
2015,07,28,05,07,13.30
2015,07,28,05,08,13.30
2015,07,28,05,09,13.30
2015,07,28,05,10,13.30
2015,07,28,05,11,13.30
2015,07,28,05,12,13.30
2015,07,28,05,13,13.30
2015,07,28,05,14,13.30
2015,07,28,05,15,13.30
2015,07,28,05,16,13.00
2015,07,28,05,17,13.00
2015,07,28,05,18,13.00
2015,07,28,05,19,13.00
2015,07,28,05,20,13.00
2015,07,28,05,21,13.00
2015,07,28,05,22,13.00
2015,07,28,05,23,13.00
2015,07,28,05,24,13.00
2015,07,28,05,25,13.00
2015,07,28,05,26,13.00
2015,07,28,05,27,13.00
2015,07,28,05,28,13.00
2015,07,28,05,29,13.00
2015,07,28,05,30,13.00
2015,07,28,05,31,13.00
2015,07,28,05,32,13.00
2015,07,28,05,33,13.00
2015,07,28,05,34,13.00
2015,07,28,05,35,13.00
2015,07,28,05,36,13.00
2015,07,28,05,37,13.00
2015,07,28,05,38,13.00
2015,07,28,05,39,13.00
2015,07,28,05,40,13.00
2015,07,28,05,41,13.00
2015,07,28,05,42,13.00
2015,07,28,05,43,13.00
2015,07,28,05,44,13.00
2015,07,28,05,45,13.00
2015,07,28,05,46,13.00
2015,07,28,05,47,13.00
2015,07,28,05,48,13.00
2015,07,28,05,49,13.00
2015,07,28,05,50,13.00
2015,07,28,05,51,13.00
2015,07,28,05,52,13.00
2015,07,28,05,53,13.00
2015,07,28,05,54,13.00
2015,07,28,05,55,13.00
2015,07,28,05,56,13.00
2015,07,28,05,57,13.00
2015,07,28,05,58,13.00
2015,07,28,05,59,13.00
2015,07,28,06,00,13.00
2015,07,28,06,01,13.00
2015,07,28,06,02,13.00
2015,07,28,06,03,13.00
2015,07,28,06,04,13.00
2015,07,28,06,05,13.00
2015,07,28,06,06,13.00
2015,07,28,06,07,13.00
2015,07,28,06,08,13.00
2015,07,28,06,09,13.00
2015,07,28,06,10,13.00
2015,07,28,06,11,13.00
2015,07,28,06,12,13.00
2015,07,28,06,13,13.00
2015,07,28,06,14,13.00
2015,07,28,06,15,13.00
2015,07,28,06,16,12.80
2015,07,28,06,17,12.80
2015,07,28,06,18,12.80
2015,07,28,06,19,12.80
2015,07,28,06,20,12.80
2015,07,28,06,21,12.80
2015,07,28,06,22,12.80
2015,07,28,06,23,12.80
2015,07,28,06,24,12.80
2015,07,28,06,25,12.80
2015,07,28,06,26,12.80
2015,07,28,06,27,12.80
2015,07,28,06,28,12.80
2015,07,28,06,29,12.80
2015,07,28,06,30,12.80
2015,07,28,06,31,12.80
2015,07,28,06,32,12.80
2015,07,28,06,33,12.80
2015,07,28,06,34,12.80
2015,07,28,06,35,12.80
2015,07,28,06,36,12.80
2015,07,28,06,37,12.80
2015,07,28,06,38,12.80
2015,07,28,06,39,12.80
2015,07,28,06,40,12.80
2015,07,28,06,41,12.80
2015,07,28,06,42,12.80
2015,07,28,06,43,12.80
2015,07,28,06,44,12.80
2015,07,28,06,45,12.80
2015,07,28,06,46,13.00
2015,07,28,06,47,13.00
2015,07,28,06,48,13.00
2015,07,28,06,49,13.00
2015,07,28,06,50,13.00
2015,07,28,06,51,13.00
2015,07,28,06,52,13.00
2015,07,28,06,53,13.00
2015,07,28,06,54,13.00
2015,07,28,06,55,13.00
2015,07,28,06,56,13.00
2015,07,28,06,57,13.00
2015,07,28,06,58,13.00
2015,07,28,06,59,13.00
2015,07,28,07,00,13.00
2015,07,28,07,01,13.00
2015,07,28,07,02,13.00
2015,07,28,07,03,13.00
2015,07,28,07,04,13.00
2015,07,28,07,05,13.00
2015,07,28,07,06,13.00
2015,07,28,07,07,13.00
2015,07,28,07,08,13.00
2015,07,28,07,09,13.00
2015,07,28,07,10,13.00
2015,07,28,07,11,13.00
2015,07,28,07,12,13.00
2015,07,28,07,13,13.00
2015,07,28,07,14,13.00
2015,07,28,07,15,13.00
2015,07,28,07,16,12.70
2015,07,28,07,17,12.70
2015,07,28,07,18,12.70
2015,07,28,07,19,12.70
2015,07,28,07,20,12.70
2015,07,28,07,21,12.70
2015,07,28,07,22,12.70
2015,07,28,07,23,12.70
2015,07,28,07,24,12.70
2015,07,28,07,25,12.70
2015,07,28,07,26,12.70
2015,07,28,07,27,12.70
2015,07,28,07,28,12.70
2015,07,28,07,29,12.70
2015,07,28,07,30,12.70
2015,07,28,07,31,12.70
2015,07,28,07,32,12.70
2015,07,28,07,33,12.70
2015,07,28,07,34,12.70
2015,07,28,07,35,12.70
2015,07,28,07,36,12.70
2015,07,28,07,42,12.70
2015,07,28,07,56,12.70
2015,07,28,07,58,12.70
2015,07,28,07,59,12.70
2015,07,28,08,00,12.70
2015,07,28,08,01,12.70
2015,07,28,08,02,12.70
2015,07,28,08,03,12.70
2015,07,28,08,04,12.70
2015,07,28,08,05,12.70
2015,07,28,08,06,12.70
2015,07,28,08,08,12.70
2015,07,28,08,09,12.70
2015,07,28,08,10,12.70
2015,07,28,08,11,12.70
2015,07,28,08,12,12.70
2015,07,28,08,13,12.70
2015,07,28,08,16,12.70
2015,07,28,08,17,13.40
2015,07,28,08,18,13.40
2015,07,28,08,19,13.40
2015,07,28,08,20,13.40
2015,07,28,08,21,13.40
2015,07,28,08,22,13.40
2015,07,28,08,23,13.40
2015,07,28,08,24,13.40
2015,07,28,08,25,13.40
2015,07,28,08,26,13.40
2015,07,28,08,27,13.40
2015,07,28,08,28,13.40
2015,07,28,08,29,13.40
2015,07,28,08,30,13.40
2015,07,28,08,31,13.40
2015,07,28,08,32,13.40
2015,07,28,08,33,13.40
2015,07,28,08,34,13.40
2015,07,28,08,35,13.40
2015,07,28,08,36,13.40
2015,07,28,08,37,13.40
2015,07,28,08,38,13.40
2015,07,28,08,39,13.40
2015,07,28,08,40,13.40
2015,07,28,08,41,13.40
2015,07,28,08,42,13.40
2015,07,28,08,43,13.40
2015,07,28,08,44,13.40
2015,07,28,08,45,13.40
2015,07,28,08,46,13.40
2015,07,28,08,47,13.40
2015,07,28,08,48,13.40
2015,07,28,08,49,13.40
2015,07,28,08,50,13.40
2015,07,28,08,51,13.40
2015,07,28,08,52,13.40
2015,07,28,08,53,13.40
2015,07,28,08,54,13.40
2015,07,28,08,55,13.40
2015,07,28,08,56,13.40
2015,07,28,08,57,13.40
2015,07,28,08,58,13.40
2015,07,28,08,59,13.40
2015,07,28,09,00,13.40
2015,07,28,09,01,13.40
2015,07,28,09,02,13.40
2015,07,28,09,03,13.40
2015,07,28,09,04,13.40
2015,07,28,09,05,13.40
2015,07,28,09,06,13.40
2015,07,28,09,07,13.40
2015,07,28,09,08,13.40
2015,07,28,09,09,13.40
2015,07,28,09,10,13.40
2015,07,28,09,11,13.40
2015,07,28,09,12,13.40
2015,07,28,09,13,13.40
2015,07,28,09,14,13.40
2015,07,28,09,15,13.40
2015,07,28,09,16,13.90
2015,07,28,09,17,13.90
2015,07,28,09,18,13.90
2015,07,28,09,19,13.90
2015,07,28,09,20,13.90
2015,07,28,09,21,13.90
2015,07,28,09,22,13.90
2015,07,28,09,23,13.90
2015,07,28,09,24,13.90
2015,07,28,09,25,13.90
2015,07,28,09,26,13.90
2015,07,28,09,27,13.90
2015,07,28,09,28,13.90
2015,07,28,09,29,13.90
2015,07,28,09,30,13.90
2015,07,28,09,31,13.90
2015,07,28,09,32,13.90
2015,07,28,09,33,13.90
2015,07,28,09,34,13.90
2015,07,28,09,35,13.90
2015,07,28,09,36,13.90
2015,07,28,09,37,13.90
2015,07,28,09,38,13.90
2015,07,28,09,39,13.90
2015,07,28,09,40,13.90
2015,07,28,09,41,13.90
2015,07,28,09,42,13.90
2015,07,28,09,43,13.90
2015,07,28,09,44,13.90
2015,07,28,09,45,13.90
2015,07,28,09,46,13.90
2015,07,28,09,47,13.90
2015,07,28,09,48,13.90
2015,07,28,09,49,13.90
2015,07,28,09,50,13.90
2015,07,28,09,51,13.90
2015,07,28,09,52,13.90
2015,07,28,09,53,13.90
2015,07,28,09,54,13.90
2015,07,28,09,55,13.90
2015,07,28,09,56,13.90
2015,07,28,09,57,13.90
2015,07,28,09,58,13.90
2015,07,28,09,59,13.90
2015,07,28,10,00,13.90
2015,07,28,10,01,13.90
2015,07,28,10,02,13.90
2015,07,28,10,03,13.90
2015,07,28,10,04,13.90
2015,07,28,10,05,13.90
2015,07,28,10,06,13.90
2015,07,28,10,07,13.90
2015,07,28,10,08,13.90
2015,07,28,10,09,13.90
2015,07,28,10,10,13.90
2015,07,28,10,11,13.90
2015,07,28,10,12,13.90
2015,07,28,10,13,13.90
2015,07,28,10,14,13.90
2015,07,28,10,15,13.90
2015,07,28,10,16,14.10
2015,07,28,10,17,14.10
2015,07,28,10,18,14.10
2015,07,28,10,19,14.10
2015,07,28,10,20,14.10
2015,07,28,10,21,14.10
2015,07,28,10,22,14.10
2015,07,28,10,23,14.10
2015,07,28,10,24,14.10
2015,07,28,10,25,14.10
2015,07,28,10,26,14.10
2015,07,28,10,27,14.10
2015,07,28,10,28,14.10
2015,07,28,10,29,14.10
2015,07,28,10,30,14.10
2015,07,28,10,31,14.10
2015,07,28,10,32,14.10
2015,07,28,10,33,14.10
2015,07,28,10,34,14.10
2015,07,28,10,35,14.10
2015,07,28,10,36,14.10
2015,07,28,10,37,14.10
2015,07,28,10,38,14.10
2015,07,28,10,39,14.10
2015,07,28,10,40,14.10
2015,07,28,10,41,14.10
2015,07,28,10,42,14.10
2015,07,28,10,43,14.10
2015,07,28,10,44,14.10
2015,07,28,10,45,14.10
2015,07,28,10,46,14.20
2015,07,28,10,47,14.20
2015,07,28,10,48,14.20
2015,07,28,10,49,14.20
2015,07,28,10,50,14.20
2015,07,28,10,51,14.20
2015,07,28,10,52,14.20
2015,07,28,10,53,14.20
2015,07,28,10,54,14.20
2015,07,28,10,55,14.20
2015,07,28,10,56,14.20
2015,07,28,10,57,14.20
2015,07,28,10,58,14.20
2015,07,28,10,59,14.20
2015,07,28,11,00,14.20
2015,07,28,11,01,14.20
2015,07,28,11,02,14.20
2015,07,28,11,03,14.20
2015,07,28,11,04,14.20
2015,07,28,11,05,14.20
2015,07,28,11,06,14.20
2015,07,28,11,07,14.20
2015,07,28,11,08,14.20
2015,07,28,11,09,14.20
2015,07,28,11,10,14.20
2015,07,28,11,11,14.20
2015,07,28,11,12,14.20
2015,07,28,11,13,14.20
2015,07,28,11,14,14.20
2015,07,28,11,15,14.20
2015,07,28,11,16,14.30
2015,07,28,11,17,14.30
2015,07,28,11,18,14.30
2015,07,28,11,19,14.30
2015,07,28,11,20,14.30
2015,07,28,11,21,14.30
2015,07,28,11,22,14.30
2015,07,28,11,23,14.30
2015,07,28,11,24,14.30
2015,07,28,11,25,14.30
2015,07,28,11,26,14.30
2015,07,28,11,27,14.30
2015,07,28,11,28,14.30
2015,07,28,11,29,14.30
2015,07,28,11,30,14.30
2015,07,28,11,31,14.30
2015,07,28,11,32,14.30
2015,07,28,11,33,14.30
2015,07,28,11,34,14.30
2015,07,28,11,35,14.30
2015,07,28,11,36,14.30
2015,07,28,11,37,14.30
2015,07,28,11,38,14.30
2015,07,28,11,39,14.30
2015,07,28,11,40,14.30
2015,07,28,11,41,14.30
2015,07,28,11,42,14.30
2015,07,28,11,43,14.30
2015,07,28,11,44,14.30
2015,07,28,11,45,14.30
2015,07,28,11,46,14.70
2015,07,28,11,47,14.70
2015,07,28,11,48,14.70
2015,07,28,11,49,14.70
2015,07,28,11,50,14.70
2015,07,28,11,51,14.70
2015,07,28,11,52,14.70
2015,07,28,11,53,14.70
2015,07,28,11,54,14.70
2015,07,28,11,55,14.70
2015,07,28,11,56,14.70
2015,07,28,11,57,14.70
2015,07,28,11,58,14.70
2015,07,28,11,59,14.70
2015,07,28,12,00,14.70
2015,07,28,12,01,14.70
2015,07,28,12,02,14.70
2015,07,28,12,03,14.70
2015,07,28,12,04,14.70
2015,07,28,12,05,14.70
2015,07,28,12,06,14.70
2015,07,28,12,07,14.70
2015,07,28,12,08,14.70
2015,07,28,12,09,14.70
2015,07,28,12,10,14.70
2015,07,28,12,11,14.70
2015,07,28,12,12,14.70
2015,07,28,12,13,14.70
2015,07,28,12,14,14.70
2015,07,28,12,15,14.70
2015,07,28,12,16,14.70
2015,07,28,12,17,14.70
2015,07,28,12,18,14.70
2015,07,28,12,19,14.70
2015,07,28,12,20,14.70
2015,07,28,12,21,14.70
2015,07,28,12,22,14.70
2015,07,28,12,23,14.70
2015,07,28,12,24,14.70
2015,07,28,12,25,14.70
2015,07,28,12,26,14.70
2015,07,28,12,27,14.70
2015,07,28,12,28,14.70
2015,07,28,12,29,14.70
2015,07,28,12,30,14.70
2015,07,28,12,31,14.70
2015,07,28,12,32,14.70
2015,07,28,12,33,14.70
2015,07,28,12,34,14.70
2015,07,28,12,35,14.70
2015,07,28,12,36,14.70
2015,07,28,12,37,14.70
2015,07,28,12,38,14.70
2015,07,28,12,39,14.70
2015,07,28,12,40,14.70
2015,07,28,12,41,14.70
2015,07,28,12,42,14.70
2015,07,28,12,43,14.70
2015,07,28,12,44,14.70
2015,07,28,12,45,14.70
2015,07,28,12,46,14.40
2015,07,28,12,47,14.40
2015,07,28,12,48,14.40
2015,07,28,12,49,14.40
2015,07,28,12,50,14.40
2015,07,28,12,51,14.40
2015,07,28,12,52,14.40
2015,07,28,12,53,14.40
2015,07,28,12,54,14.40
2015,07,28,12,55,14.40
2015,07,28,12,56,14.40
2015,07,28,12,57,14.40
2015,07,28,12,58,14.40
2015,07,28,12,59,14.40
2015,07,28,13,00,14.40
2015,07,28,13,01,14.40
2015,07,28,13,02,14.40
2015,07,28,13,03,14.40
2015,07,28,13,04,14.40
2015,07,28,13,05,14.40
2015,07,28,13,06,14.40
2015,07,28,13,07,14.40
2015,07,28,13,08,14.40
2015,07,28,13,09,14.40
2015,07,28,13,10,14.40
2015,07,28,13,11,14.40
2015,07,28,13,12,14.40
2015,07,28,13,13,14.40
2015,07,28,13,14,14.40
2015,07,28,13,15,14.40
2015,07,28,13,16,14.70
2015,07,28,13,17,14.70
2015,07,28,13,18,14.70
2015,07,28,13,19,14.70
2015,07,28,13,20,14.70
2015,07,28,13,21,14.70
2015,07,28,13,22,14.70
2015,07,28,13,23,14.70
2015,07,28,13,24,14.70
2015,07,28,13,25,14.70
2015,07,28,13,26,14.70
2015,07,28,13,27,14.70
2015,07,28,13,28,14.70
2015,07,28,13,29,14.70
2015,07,28,13,30,14.70
2015,07,28,13,31,14.70
2015,07,28,13,32,14.70
2015,07,28,13,33,14.70
2015,07,28,13,34,14.70
2015,07,28,13,35,14.70
2015,07,28,13,36,14.70
2015,07,28,13,37,14.70
2015,07,28,13,38,14.70
2015,07,28,13,39,14.70
2015,07,28,13,40,14.70
2015,07,28,13,41,14.70
2015,07,28,13,42,14.70
2015,07,28,13,43,14.70
2015,07,28,13,44,14.70
2015,07,28,13,45,14.70
2015,07,28,13,46,14.20
2015,07,28,13,47,14.20
2015,07,28,13,48,14.20
2015,07,28,13,49,14.20
2015,07,28,13,50,14.20
2015,07,28,13,51,14.20
2015,07,28,13,52,14.20
2015,07,28,13,53,14.20
2015,07,28,13,54,14.20
2015,07,28,13,55,14.20
2015,07,28,13,56,14.20
2015,07,28,13,57,14.20
2015,07,28,13,58,14.20
2015,07,28,13,59,14.20
2015,07,28,14,00,14.20
2015,07,28,14,01,14.20
2015,07,28,14,02,14.20
2015,07,28,14,03,14.20
2015,07,28,14,04,14.20
2015,07,28,14,05,14.20
2015,07,28,14,06,14.20
2015,07,28,14,07,14.20
2015,07,28,14,08,14.20
2015,07,28,14,09,14.20
2015,07,28,14,10,14.20
2015,07,28,14,11,14.20
2015,07,28,14,12,14.20
2015,07,28,14,13,14.20
2015,07,28,14,14,14.20
2015,07,28,14,15,14.20
2015,07,28,14,16,14.70
2015,07,28,14,17,14.70
2015,07,28,14,18,14.70
2015,07,28,14,19,14.70
2015,07,28,14,20,14.70
2015,07,28,14,21,14.70
2015,07,28,14,22,14.70
2015,07,28,14,23,14.70
2015,07,28,14,24,14.70
2015,07,28,14,25,14.70
2015,07,28,14,26,14.70
2015,07,28,14,27,14.70
2015,07,28,14,28,14.70
2015,07,28,14,29,14.70
2015,07,28,14,30,14.70
2015,07,28,14,31,14.70
2015,07,28,14,32,14.70
2015,07,28,14,33,14.70
2015,07,28,14,34,14.70
2015,07,28,14,35,14.70
2015,07,28,14,36,14.70
2015,07,28,14,37,14.70
2015,07,28,14,38,14.70
2015,07,28,14,39,14.70
2015,07,28,14,40,14.70
2015,07,28,14,41,14.70
2015,07,28,14,42,14.70
2015,07,28,14,43,14.70
2015,07,28,14,44,14.70
2015,07,28,14,45,14.70
2015,07,28,14,46,15.10
2015,07,28,14,47,15.10
2015,07,28,14,48,15.10
2015,07,28,14,49,15.10
2015,07,28,14,50,15.10
2015,07,28,14,51,15.10
2015,07,28,14,52,15.10
2015,07,28,14,53,15.10
2015,07,28,14,54,15.10
2015,07,28,14,55,15.10
2015,07,28,14,56,15.10
2015,07,28,14,57,15.10
2015,07,28,14,58,15.10
2015,07,28,14,59,15.10
2015,07,28,15,00,15.10
2015,07,28,15,01,15.10
2015,07,28,15,02,15.10
2015,07,28,15,03,15.10
2015,07,28,15,04,15.10
2015,07,28,15,05,15.10
2015,07,28,15,06,15.10
2015,07,28,15,07,15.10
2015,07,28,15,08,15.10
2015,07,28,15,09,15.10
2015,07,28,15,10,15.10
2015,07,28,15,11,15.10
2015,07,28,15,12,15.10
2015,07,28,15,13,15.10
2015,07,28,15,14,15.10
2015,07,28,15,15,15.10
2015,07,28,15,16,14.90
2015,07,28,15,17,14.90
2015,07,28,15,18,14.90
2015,07,28,15,19,14.90
2015,07,28,15,20,14.90
2015,07,28,15,21,14.90
2015,07,28,15,22,14.90
2015,07,28,15,23,14.90
2015,07,28,15,24,14.90
2015,07,28,15,25,14.90
2015,07,28,15,26,14.90
2015,07,28,15,27,14.90
2015,07,28,15,28,14.90
2015,07,28,15,29,14.90
2015,07,28,15,30,14.90
2015,07,28,15,31,14.90
2015,07,28,15,32,14.90
2015,07,28,15,33,14.90
2015,07,28,15,34,14.90
2015,07,28,15,35,14.90
2015,07,28,15,36,14.90
2015,07,28,15,37,14.90
2015,07,28,15,38,14.90
2015,07,28,15,39,14.90
2015,07,28,15,40,14.90
2015,07,28,15,41,14.90
2015,07,28,15,42,14.90
2015,07,28,15,43,14.90
2015,07,28,15,44,14.90
2015,07,28,15,45,14.90
2015,07,28,15,46,14.60
2015,07,28,15,47,14.60
2015,07,28,15,48,14.60
2015,07,28,15,49,14.60
2015,07,28,15,50,14.60
2015,07,28,15,51,14.60
2015,07,28,15,52,14.60
2015,07,28,15,53,14.60
2015,07,28,15,54,14.60
2015,07,28,15,55,14.60
2015,07,28,15,56,14.60
2015,07,28,15,57,14.60
2015,07,28,15,58,14.60
2015,07,28,15,59,14.60
2015,07,28,16,00,14.60
2015,07,28,16,01,14.60
2015,07,28,16,02,14.60
2015,07,28,16,03,14.60
2015,07,28,16,04,14.60
2015,07,28,16,05,14.60
2015,07,28,16,06,14.60
2015,07,28,16,07,14.60
2015,07,28,16,08,14.60
2015,07,28,16,09,14.60
2015,07,28,16,10,14.60
2015,07,28,16,11,14.60
2015,07,28,16,12,14.60
2015,07,28,16,13,14.60
2015,07,28,16,14,14.60
2015,07,28,16,15,14.60
2015,07,28,16,16,13.90
2015,07,28,16,17,13.90
2015,07,28,16,18,13.90
2015,07,28,16,19,13.90
2015,07,28,16,20,13.90
2015,07,28,16,21,13.90
2015,07,28,16,22,13.90
2015,07,28,16,23,13.90
2015,07,28,16,24,13.90
2015,07,28,16,25,13.90
2015,07,28,16,26,13.90
2015,07,28,16,27,13.90
2015,07,28,16,28,13.90
2015,07,28,16,29,13.90
2015,07,28,16,30,13.90
2015,07,28,16,31,13.90
2015,07,28,16,32,13.90
2015,07,28,16,33,13.90
2015,07,28,16,34,13.90
2015,07,28,16,35,13.90
2015,07,28,16,36,13.90
2015,07,28,16,37,13.90
2015,07,28,16,38,13.90
2015,07,28,16,39,13.90
2015,07,28,16,40,13.90
2015,07,28,16,41,13.90
2015,07,28,16,42,13.90
2015,07,28,16,43,13.90
2015,07,28,16,44,13.90
2015,07,28,16,45,13.90
2015,07,28,16,46,13.40
2015,07,28,16,47,13.40
2015,07,28,16,48,13.40
2015,07,28,16,49,13.40
2015,07,28,16,50,13.40
2015,07,28,16,51,13.40
2015,07,28,16,52,13.40
2015,07,28,16,53,13.40
2015,07,28,16,54,13.40
2015,07,28,16,55,13.40
2015,07,28,16,56,13.40
2015,07,28,16,57,13.40
2015,07,28,16,58,13.40
2015,07,28,16,59,13.40
2015,07,28,17,00,13.40
2015,07,28,17,01,13.40
2015,07,28,17,02,13.40
2015,07,28,17,03,13.40
2015,07,28,17,04,13.40
2015,07,28,17,05,13.40
2015,07,28,17,06,13.40
2015,07,28,17,07,13.40
2015,07,28,17,08,13.40
2015,07,28,17,09,13.40
2015,07,28,17,10,13.40
2015,07,28,17,11,13.40
2015,07,28,17,12,13.40
2015,07,28,17,13,13.40
2015,07,28,17,14,13.40
2015,07,28,17,15,13.40
2015,07,28,17,16,13.40
2015,07,28,17,17,13.40
2015,07,28,17,18,13.40
2015,07,28,17,19,13.40
2015,07,28,17,20,13.40
2015,07,28,17,21,13.40
2015,07,28,17,22,13.40
2015,07,28,17,23,13.40
2015,07,28,17,24,13.40
2015,07,28,17,25,13.40
2015,07,28,17,26,13.40
2015,07,28,17,27,13.40
2015,07,28,17,28,13.40
2015,07,28,17,29,13.40
2015,07,28,17,30,13.40
2015,07,28,17,31,13.40
2015,07,28,17,32,13.40
2015,07,28,17,33,13.40
2015,07,28,17,34,13.40
2015,07,28,17,35,13.40
2015,07,28,17,36,13.40
2015,07,28,17,37,13.40
2015,07,28,17,38,13.40
2015,07,28,17,39,13.40
2015,07,28,17,40,13.40
2015,07,28,17,41,13.40
2015,07,28,17,42,13.40
2015,07,28,17,43,13.40
2015,07,28,17,44,13.40
2015,07,28,17,45,13.40
2015,07,28,17,46,13.50
2015,07,28,17,47,13.50
2015,07,28,17,48,13.50
2015,07,28,17,49,13.50
2015,07,28,17,50,13.50
2015,07,28,17,51,13.50
2015,07,28,17,52,13.50
2015,07,28,17,53,13.50
2015,07,28,17,54,13.50
2015,07,28,17,55,13.50
2015,07,28,17,56,13.50
2015,07,28,17,57,13.50
2015,07,28,17,58,13.50
2015,07,28,17,59,13.50
2015,07,28,18,00,13.50
2015,07,28,18,01,13.50
2015,07,28,18,02,13.50
2015,07,28,18,03,13.50
2015,07,28,18,04,13.50
2015,07,28,18,05,13.50
2015,07,28,18,06,13.50
2015,07,28,18,07,13.50
2015,07,28,18,08,13.50
2015,07,28,18,09,13.50
2015,07,28,18,10,13.50
2015,07,28,18,11,13.50
2015,07,28,18,12,13.50
2015,07,28,18,13,13.50
2015,07,28,18,14,13.50
2015,07,28,18,15,13.50
2015,07,28,18,16,13.80
2015,07,28,18,17,13.80
2015,07,28,18,18,13.80
2015,07,28,18,19,13.80
2015,07,28,18,20,13.80
2015,07,28,18,21,13.80
2015,07,28,18,22,13.80
2015,07,28,18,23,13.80
2015,07,28,18,24,13.80
2015,07,28,18,25,13.80
2015,07,28,18,26,13.80
2015,07,28,18,27,13.80
2015,07,28,18,28,13.80
2015,07,28,18,29,13.80
2015,07,28,18,30,13.80
2015,07,28,18,31,13.80
2015,07,28,18,32,13.80
2015,07,28,18,33,13.80
2015,07,28,18,34,13.80
2015,07,28,18,35,13.80
2015,07,28,18,36,13.80
2015,07,28,18,37,13.80
2015,07,28,18,38,13.80
2015,07,28,18,39,13.80
2015,07,28,18,40,13.80
2015,07,28,18,41,13.80
2015,07,28,18,42,13.80
2015,07,28,18,43,13.80
2015,07,28,18,44,13.80
2015,07,28,18,45,13.80
2015,07,28,18,46,14.20
2015,07,28,18,47,14.20
2015,07,28,18,48,14.20
2015,07,28,18,49,14.20
2015,07,28,18,50,14.20
2015,07,28,18,51,14.20
2015,07,28,18,52,14.20
2015,07,28,18,53,14.20
2015,07,28,18,54,14.20
2015,07,28,18,55,14.20
2015,07,28,18,56,14.20
2015,07,28,18,57,14.20
2015,07,28,18,58,14.20
2015,07,28,18,59,14.20
2015,07,28,19,00,14.20